| time (UTC) | temp C | wind direction | speed KPH | gust KPH | rain 1hr cm | rain 24hr cm | rain mn cm | humidity % | barometer mb |
| 20260507201028 | 17 | 148 | 3.2 | 11.3 | 0.00 | 0.41 | 0.08 | 35 | 1004.9 |
| 20260507200529 | 17 | 281 | 1.6 | 11.3 | 0.00 | 0.41 | 0.08 | 35 | 1004.9 |
| 20260507200048 | 16 | 203 | 1.6 | 9.7 | 0.00 | 0.41 | 0.08 | 36 | 1004.9 |
| 20260507195528 | 17 | 7 | 1.6 | 9.7 | 0.00 | 0.51 | 0.08 | 35 | 1005.0 |
| 20260507195031 | 17 | 275 | 1.6 | 9.7 | 0.00 | 0.51 | 0.08 | 36 | 1005.0 |
| 20260507194547 | 17 | 159 | 1.6 | 9.7 | 0.00 | 0.51 | 0.08 | 36 | 1005.1 |
| 20260507194027 | 17 | 122 | 3.2 | 12.9 | 0.00 | 0.51 | 0.08 | 36 | 1005.2 |
| 20260507193527 | 17 | 137 | 1.6 | 12.9 | 0.00 | 0.51 | 0.08 | 34 | 1005.2 |
| 20260507193040 | 17 | 348 | 1.6 | 6.4 | 0.00 | 0.51 | 0.08 | 34 | 1005.2 |
| 20260507192528 | 17 | 77 | 1.6 | 8.0 | 0.00 | 0.51 | 0.08 | 35 | 1005.2 |
| 20260507192025 | 17 | 258 | 3.2 | 12.9 | 0.00 | 0.51 | 0.08 | 34 | 1005.3 |
| 20260507191543 | 17 | 234 | 3.2 | 12.9 | 0.00 | 0.51 | 0.08 | 36 | 1005.4 |
| 20260507191028 | 17 | 72 | 3.2 | 11.3 | 0.00 | 0.51 | 0.08 | 35 | 1005.5 |
| 20260507190527 | 17 | 154 | 3.2 | 11.3 | 0.00 | 0.51 | 0.08 | 32 | 1005.4 |
| 20260507190042 | 17 | 106 | 1.6 | 12.9 | 0.00 | 0.51 | 0.08 | 32 | 1005.5 |
| 20260507185527 | 17 | 227 | 4.8 | 12.9 | 0.00 | 0.56 | 0.08 | 32 | 1005.6 |
| 20260507185025 | 17 | 62 | 1.6 | 6.4 | 0.00 | 0.56 | 0.08 | 33 | 1005.6 |
| 20260507184554 | 17 | 37 | 1.6 | 9.7 | 0.00 | 0.56 | 0.08 | 31 | 1005.6 |
| 20260507184024 | 17 | 295 | 1.6 | 9.7 | 0.00 | 0.56 | 0.08 | 35 | 1005.6 |
| 20260507183525 | 17 | 153 | 3.2 | 9.7 | 0.00 | 0.56 | 0.08 | 31 | 1005.6 |
| 20260507183045 | 17 | 8 | 1.6 | 17.7 | 0.00 | 0.56 | 0.08 | 39 | 1005.7 |
| 20260507182525 | 17 | 337 | 1.6 | 17.7 | 0.00 | 0.56 | 0.08 | 37 | 1005.6 |
| 20260507182025 | 17 | 211 | 4.8 | 17.7 | 0.00 | 0.56 | 0.08 | 35 | 1005.6 |
| 20260507181539 | 17 | 11 | 1.6 | 14.5 | 0.00 | 0.56 | 0.08 | 33 | 1005.6 |
| 20260507181031 | 17 | 332 | 4.8 | 14.5 | 0.00 | 0.56 | 0.08 | 33 | 1005.8 |
| 20260507180524 | 17 | 79 | 3.2 | 11.3 | 0.00 | 0.56 | 0.08 | 40 | 1005.7 |
| 20260507180043 | 17 | 354 | 3.2 | 11.3 | 0.00 | 0.56 | 0.08 | 34 | 1005.7 |
| 20260507175525 | 17 | 66 | 4.8 | 9.7 | 0.00 | 0.56 | 0.08 | 32 | 1005.8 |
| 20260507175024 | 17 | 27 | 1.6 | 9.7 | 0.00 | 0.56 | 0.08 | 37 | 1005.7 |
| 20260507174536 | 17 | 7 | 1.6 | 8.0 | 0.00 | 0.56 | 0.08 | 35 | 1005.7 |
| 20260507174026 | 17 | 312 | 1.6 | 11.3 | 0.00 | 0.56 | 0.08 | 34 | 1005.8 |
| 20260507173527 | 17 | 268 | 0.0 | 11.3 | 0.00 | 0.56 | 0.08 | 37 | 1005.7 |
| 20260507173043 | 17 | 339 | 4.8 | 16.1 | 0.00 | 0.56 | 0.08 | 39 | 1005.5 |
| 20260507172528 | 17 | 273 | 1.6 | 16.1 | 0.00 | 0.56 | 0.08 | 33 | 1005.6 |
| 20260507172025 | 17 | 350 | 4.8 | 19.3 | 0.00 | 0.56 | 0.08 | 36 | 1005.7 |
| 20260507171547 | 16 | 328 | 1.6 | 20.9 | 0.00 | 0.56 | 0.08 | 38 | 1005.9 |
| 20260507171026 | 17 | 14 | 6.4 | 20.9 | 0.00 | 0.56 | 0.08 | 34 | 1005.9 |
| 20260507170526 | 17 | 54 | 3.2 | 12.9 | 0.00 | 0.56 | 0.08 | 38 | 1006.0 |
| 20260507170045 | 16 | 101 | 3.2 | 12.9 | 0.00 | 0.56 | 0.08 | 44 | 1006.2 |
| 20260507165527 | 17 | 238 | 3.2 | 12.9 | 0.00 | 0.56 | 0.08 | 40 | 1006.2 |
| 20260507165027 | 16 | 262 | 3.2 | 11.3 | 0.00 | 0.56 | 0.08 | 40 | 1006.2 |
| 20260507164559 | 17 | 203 | 3.2 | 14.5 | 0.00 | 0.56 | 0.08 | 41 | 1006.4 |
| 20260507164024 | 17 | 170 | 3.2 | 14.5 | 0.00 | 0.56 | 0.08 | 40 | 1006.4 |
| 20260507163526 | 16 | 274 | 3.2 | 19.3 | 0.00 | 0.56 | 0.08 | 43 | 1006.4 |
| 20260507163042 | 16 | 130 | 3.2 | 19.3 | 0.00 | 0.56 | 0.08 | 47 | 1006.7 |
| 20260507162525 | 16 | 3 | 6.4 | 19.3 | 0.00 | 0.56 | 0.08 | 44 | 1006.7 |
| 20260507162025 | 16 | 4 | 3.2 | 22.5 | 0.00 | 0.56 | 0.08 | 46 | 1006.7 |
| 20260507161547 | 16 | 63 | 4.8 | 22.5 | 0.00 | 0.56 | 0.08 | 44 | 1006.7 |
| 20260507161025 | 16 | 333 | 4.8 | 22.5 | 0.00 | 0.56 | 0.08 | 48 | 1006.7 |
| 20260507160528 | 16 | 88 | 4.8 | 17.7 | 0.00 | 0.56 | 0.08 | 49 | 1006.6 |
| 20260507160040 | 16 | 58 | 6.4 | 17.7 | 0.00 | 0.56 | 0.08 | 50 | 1006.8 |
| 20260507155528 | 16 | 40 | 4.8 | 11.3 | 0.00 | 0.56 | 0.08 | 52 | 1006.7 |
| 20260507155026 | 17 | 44 | 1.6 | 8.0 | 0.00 | 0.56 | 0.08 | 49 | 1006.7 |
| 20260507154537 | 16 | 326 | 3.2 | 12.9 | 0.00 | 0.56 | 0.08 | 50 | 1006.7 |
| 20260507154028 | 15 | 103 | 1.6 | 12.9 | 0.00 | 0.56 | 0.08 | 60 | 1006.8 |
| 20260507153525 | 15 | 291 | 3.2 | 12.9 | 0.00 | 0.56 | 0.08 | 53 | 1006.8 |
| 20260507153039 | 16 | 0 | 4.8 | 11.3 | 0.00 | 0.56 | 0.08 | 55 | 1006.8 |
| 20260507152524 | 16 | 274 | 1.6 | 14.5 | 0.00 | 0.56 | 0.08 | 53 | 1006.8 |
| 20260507152028 | 16 | 236 | 3.2 | 14.5 | 0.00 | 0.56 | 0.08 | 55 | 1006.9 |
| 20260507151535 | 15 | 1 | 3.2 | 12.9 | 0.00 | 0.56 | 0.08 | 55 | 1006.9 |
| 20260507151025 | 15 | 125 | 3.2 | 12.9 | 0.00 | 0.56 | 0.08 | 56 | 1007.1 |
| 20260507150526 | 15 | 347 | 4.8 | 12.9 | 0.00 | 0.56 | 0.08 | 56 | 1007.1 |
| 20260507150043 | 15 | 165 | 1.6 | 9.7 | 0.00 | 0.56 | 0.08 | 59 | 1007.2 |
| 20260507145524 | 14 | 224 | 1.6 | 11.3 | 0.00 | 0.56 | 0.08 | 59 | 1007.3 |
| 20260507145031 | 15 | 19 | 3.2 | 11.3 | 0.00 | 0.56 | 0.08 | 62 | 1007.3 |
| 20260507144540 | 14 | 1 | 0.0 | 11.3 | 0.00 | 0.56 | 0.08 | 61 | 1007.3 |
| 20260507144025 | 14 | 58 | 1.6 | 11.3 | 0.00 | 0.56 | 0.08 | 59 | 1007.4 |
| 20260507143526 | 15 | 46 | 3.2 | 12.9 | 0.00 | 0.56 | 0.08 | 59 | 1007.4 |
| 20260507143100 | 15 | 61 | 4.8 | 12.9 | 0.00 | 0.56 | 0.08 | 59 | 1007.4 |
| 20260507142527 | 15 | 339 | 0.0 | 8.0 | 0.00 | 0.56 | 0.08 | 64 | 1007.3 |
| 20260507142025 | 14 | 304 | 3.2 | 8.0 | 0.00 | 0.56 | 0.08 | 58 | 1007.3 |
| 20260507141604 | 14 | 262 | 0.0 | 4.8 | 0.00 | 0.56 | 0.08 | 61 | 1007.4 |
| 20260507141025 | 14 | 232 | 0.0 | 6.4 | 0.00 | 0.56 | 0.08 | 62 | 1007.4 |
| 20260507140525 | 14 | 345 | 0.0 | 6.4 | 0.00 | 0.56 | 0.08 | 63 | 1007.4 |
| 20260507140042 | 13 | 47 | 1.6 | 6.4 | 0.00 | 0.56 | 0.08 | 62 | 1007.4 |
| 20260507135528 | 14 | 293 | 1.6 | 6.4 | 0.00 | 0.56 | 0.08 | 65 | 1007.5 |
| 20260507135028 | 13 | 210 | 3.2 | 6.4 | 0.00 | 0.56 | 0.08 | 63 | 1007.3 |
| 20260507134540 | 14 | 120 | 1.6 | 4.8 | 0.00 | 0.56 | 0.08 | 62 | 1007.3 |
| 20260507134029 | 14 | 204 | 1.6 | 6.4 | 0.00 | 0.56 | 0.08 | 62 | 1007.3 |
| 20260507133530 | 14 | 87 | 1.6 | 8.0 | 0.00 | 0.56 | 0.08 | 70 | 1007.2 |
| 20260507133037 | 13 | 134 | 1.6 | 8.0 | 0.00 | 0.56 | 0.08 | 65 | 1007.2 |
| 20260507132524 | 13 | 79 | 0.0 | 8.0 | 0.00 | 0.56 | 0.08 | 68 | 1007.4 |
| 20260507132024 | 13 | 333 | 1.6 | 11.3 | 0.00 | 0.56 | 0.08 | 66 | 1007.5 |
| 20260507131546 | 13 | 243 | 0.0 | 11.3 | 0.00 | 0.56 | 0.08 | 72 | 1007.6 |
| 20260507131028 | 12 | 69 | 3.2 | 11.3 | 0.00 | 0.56 | 0.08 | 70 | 1007.7 |
| 20260507130527 | 12 | 10 | 4.8 | 11.3 | 0.00 | 0.56 | 0.08 | 68 | 1007.7 |
| 20260507130041 | 12 | 325 | 3.2 | 11.3 | 0.00 | 0.56 | 0.08 | 69 | 1007.7 |
| 20260507125528 | 12 | 78 | 3.2 | 9.7 | 0.00 | 0.56 | 0.08 | 70 | 1007.7 |
| 20260507125027 | 13 | 91 | 1.6 | 4.8 | 0.00 | 0.56 | 0.08 | 70 | 1007.7 |
| 20260507124542 | 12 | 349 | 0.0 | 6.4 | 0.00 | 0.56 | 0.08 | 74 | 1007.8 |
| 20260507124031 | 12 | 262 | 0.0 | 6.4 | 0.00 | 0.56 | 0.08 | 75 | 1007.7 |
| 20260507123525 | 12 | 288 | 1.6 | 6.4 | 0.00 | 0.56 | 0.08 | 77 | 1007.8 |
| 20260507123040 | 11 | 51 | 0.0 | 9.7 | 0.00 | 0.56 | 0.08 | 81 | 1007.9 |
| 20260507122524 | 11 | 13 | 4.8 | 9.7 | 0.00 | 0.56 | 0.08 | 76 | 1007.9 |
| 20260507122027 | 11 | 25 | 1.6 | 6.4 | 0.00 | 0.56 | 0.08 | 80 | 1008.0 |
| 20260507121542 | 10 | 4 | 0.0 | 8.0 | 0.00 | 0.56 | 0.08 | 83 | 1007.9 |
| 20260507121028 | 10 | 37 | 0.0 | 8.0 | 0.00 | 0.56 | 0.08 | 82 | 1008.0 |
| 20260507120529 | 10 | 43 | 1.6 | 8.0 | 0.00 | 0.56 | 0.08 | 81 | 1008.0 |
| 20260507120036 | 10 | 4 | 0.0 | 6.4 | 0.00 | 0.56 | 0.08 | 82 | 1008.0 |
| 20260507115525 | 10 | 298 | 1.6 | 9.7 | 0.00 | 0.56 | 0.08 | 82 | 1008.1 |
| 20260507115030 | 10 | 12 | 1.6 | 9.7 | 0.00 | 0.56 | 0.08 | 83 | 1007.9 |
| 20260507114541 | 10 | 26 | 0.0 | 1.6 | 0.00 | 0.56 | 0.08 | 85 | 1008.0 |
| 20260507114031 | 10 | 20 | 0.0 | 3.2 | 0.00 | 0.56 | 0.08 | 87 | 1007.9 |
| 20260507113528 | 9 | 0 | 0.0 | 3.2 | 0.00 | 0.56 | 0.08 | 87 | 1007.9 |
| 20260507113037 | 9 | 15 | 0.0 | 1.6 | 0.00 | 0.56 | 0.08 | 88 | 1008.0 |
| 20260507112530 | 9 | 356 | 0.0 | 1.6 | 0.00 | 0.56 | 0.08 | 89 | 1008.0 |
| 20260507112025 | 8 | 0 | 0.0 | 3.2 | 0.00 | 0.56 | 0.08 | 89 | 1007.9 |
| 20260507111536 | 8 | 0 | 0.0 | 3.2 | 0.00 | 0.56 | 0.08 | 89 | 1007.8 |
| 20260507111024 | 8 | 0 | 0.0 | 0.0 | 0.00 | 0.56 | 0.08 | 91 | 1007.7 |
| 20260507110527 | 8 | 0 | 0.0 | 0.0 | 0.00 | 0.56 | 0.08 | 91 | 1007.5 |
| 20260507110050 | 8 | 0 | 0.0 | 0.0 | 0.00 | 0.56 | 0.08 | 91 | 1007.7 |
| 20260507105525 | 8 | 0 | 0.0 | 0.0 | 0.00 | 0.56 | 0.08 | 91 | 1007.7 |
| 20260507105027 | 8 | 0 | 0.0 | 0.0 | 0.00 | 0.56 | 0.08 | 91 | 1007.9 |
| 20260507104546 | 8 | 0 | 0.0 | 0.0 | 0.00 | 0.56 | 0.08 | 91 | 1007.8 |
| 20260507104025 | 8 | 0 | 0.0 | 3.2 | 0.00 | 0.56 | 0.08 | 91 | 1007.6 |
| 20260507103524 | 8 | 0 | 0.0 | 3.2 | 0.00 | 0.56 | 0.08 | 91 | 1007.3 |
| 20260507103042 | 8 | 6 | 0.0 | 1.6 | 0.00 | 0.56 | 0.08 | 91 | 1007.2 |
| 20260507102525 | 8 | 0 | 0.0 | 0.0 | 0.00 | 0.56 | 0.08 | 91 | 1007.1 |
| 20260507102027 | 8 | 0 | 0.0 | 1.6 | 0.00 | 0.56 | 0.08 | 91 | 1006.9 |
| 20260507101542 | 8 | 0 | 0.0 | 1.6 | 0.00 | 0.56 | 0.08 | 91 | 1007.0 |
| 20260507101028 | 8 | 0 | 0.0 | 1.6 | 0.00 | 0.56 | 0.08 | 90 | 1006.9 |
| 20260507100525 | 8 | 25 | 0.0 | 1.6 | 0.00 | 0.56 | 0.08 | 91 | 1007.0 |
| 20260507100046 | 8 | 0 | 0.0 | 1.6 | 0.00 | 0.56 | 0.08 | 90 | 1007.1 |
| 20260507095530 | 8 | 0 | 0.0 | 1.6 | 0.00 | 0.56 | 0.08 | 90 | 1007.0 |
| 20260507095028 | 8 | 0 | 0.0 | 3.2 | 0.00 | 0.56 | 0.08 | 90 | 1006.8 |
| 20260507094537 | 8 | 344 | 0.0 | 4.8 | 0.00 | 0.56 | 0.08 | 90 | 1006.7 |
| 20260507094026 | 8 | 343 | 0.0 | 4.8 | 0.00 | 0.56 | 0.08 | 90 | 1007.2 |
| 20260507093525 | 8 | 0 | 0.0 | 1.6 | 0.00 | 0.56 | 0.08 | 90 | 1007.3 |
| 20260507093037 | 8 | 107 | 0.0 | 6.4 | 0.00 | 0.56 | 0.08 | 90 | 1007.0 |
| 20260507092524 | 8 | 0 | 0.0 | 6.4 | 0.00 | 0.56 | 0.08 | 90 | 1007.1 |
| 20260507092031 | 8 | 0 | 0.0 | 3.2 | 0.00 | 0.56 | 0.08 | 90 | 1007.2 |
| 20260507091543 | 8 | 0 | 0.0 | 3.2 | 0.00 | 0.56 | 0.08 | 90 | 1007.0 |
| 20260507091025 | 8 | 0 | 0.0 | 1.6 | 0.00 | 0.56 | 0.08 | 90 | 1007.3 |
| 20260507090528 | 8 | 0 | 0.0 | 6.4 | 0.00 | 0.56 | 0.08 | 89 | 1007.3 |
| 20260507090049 | 8 | 280 | 0.0 | 6.4 | 0.00 | 0.56 | 0.08 | 89 | 1007.5 |
| 20260507085528 | 8 | 279 | 0.0 | 6.4 | 0.00 | 0.56 | 0.08 | 89 | 1007.4 |
| 20260507085027 | 8 | 0 | 0.0 | 1.6 | 0.00 | 0.56 | 0.08 | 90 | 1007.2 |
| 20260507084548 | 8 | 0 | 0.0 | 3.2 | 0.03 | 0.56 | 0.08 | 90 | 1007.3 |
| 20260507084028 | 8 | 0 | 0.0 | 3.2 | 0.03 | 0.56 | 0.08 | 90 | 1007.4 |
| 20260507083525 | 9 | 342 | 0.0 | 4.8 | 0.05 | 0.56 | 0.08 | 90 | 1006.9 |
| 20260507083039 | 9 | 23 | 1.6 | 4.8 | 0.05 | 0.56 | 0.08 | 90 | 1007.0 |
| 20260507082528 | 9 | 0 | 0.0 | 4.8 | 0.05 | 0.56 | 0.08 | 91 | 1006.9 |
| 20260507082028 | 9 | 0 | 0.0 | 4.8 | 0.05 | 0.56 | 0.08 | 91 | 1006.8 |
| 20260507081534 | 9 | 0 | 0.0 | 3.2 | 0.05 | 0.56 | 0.08 | 91 | 1006.7 |
| 20260507081027 | 9 | 353 | 0.0 | 3.2 | 0.05 | 0.56 | 0.08 | 91 | 1006.6 |
| 20260507080528 | 9 | 348 | 0.0 | 4.8 | 0.05 | 0.56 | 0.08 | 91 | 1006.7 |
| 20260507080041 | 9 | 0 | 0.0 | 4.8 | 0.05 | 0.56 | 0.08 | 90 | 1006.7 |
| 20260507075525 | 10 | 0 | 0.0 | 4.8 | 0.05 | 0.56 | 0.08 | 90 | 1006.7 |
| 20260507075025 | 10 | 0 | 0.0 | 4.8 | 0.05 | 0.56 | 0.08 | 90 | 1006.9 |
| 20260507074541 | 10 | 36 | 0.0 | 4.8 | 0.03 | 0.53 | 0.05 | 90 | 1007.0 |
| 20260507074027 | 10 | 115 | 0.0 | 8.0 | 0.03 | 0.53 | 0.05 | 89 | 1006.6 |
| 20260507073528 | 10 | 0 | 1.6 | 8.0 | 0.00 | 0.51 | 0.03 | 90 | 1006.8 |
| 20260507073040 | 10 | 0 | 1.6 | 8.0 | 0.00 | 0.51 | 0.03 | 91 | 1007.0 |
| 20260507072530 | 10 | 0 | 0.0 | 6.4 | 0.00 | 0.51 | 0.03 | 92 | 1006.5 |
| 20260507072026 | 10 | 0 | 0.0 | 3.2 | 0.00 | 0.51 | 0.03 | 92 | 1006.5 |
| 20260507071537 | 10 | 0 | 0.0 | 3.2 | 0.00 | 0.51 | 0.03 | 92 | 1006.2 |
| 20260507071031 | 10 | 0 | 0.0 | 1.6 | 0.00 | 0.51 | 0.03 | 93 | 1006.2 |
| 20260507070527 | 10 | 0 | 0.0 | 1.6 | 0.00 | 0.51 | 0.03 | 92 | 1006.1 |
| 20260507070043 | 10 | 0 | 0.0 | 0.0 | 0.00 | 0.51 | 0.03 | 92 | 1006.2 |
| 20260507065525 | 10 | 0 | 0.0 | 0.0 | 0.00 | 0.51 | 0.03 | 92 | 1006.1 |
| 20260507065028 | 10 | 0 | 0.0 | 0.0 | 0.00 | 0.51 | 0.03 | 92 | 1006.0 |
| 20260507064601 | 10 | 0 | 0.0 | 1.6 | 0.00 | 0.51 | 0.03 | 92 | 1006.0 |
| 20260507064027 | 10 | 0 | 0.0 | 1.6 | 0.00 | 0.51 | 0.03 | 91 | 1005.9 |
| 20260507063527 | 10 | 0 | 0.0 | 3.2 | 0.00 | 0.51 | 0.03 | 91 | 1006.2 |
| 20260507063037 | 10 | 0 | 0.0 | 3.2 | 0.00 | 0.51 | 0.03 | 91 | 1006.1 |
| 20260507062530 | 10 | 0 | 0.0 | 1.6 | 0.00 | 0.51 | 0.03 | 91 | 1006.2 |
| 20260507062026 | 10 | 0 | 0.0 | 1.6 | 0.00 | 0.51 | 0.03 | 91 | 1006.2 |
| 20260507061540 | 10 | 0 | 0.0 | 6.4 | 0.00 | 0.51 | 0.03 | 91 | 1006.1 |
| 20260507061024 | 10 | 0 | 0.0 | 6.4 | 0.00 | 0.51 | 0.03 | 90 | 1006.0 |
| 20260507060524 | 10 | 0 | 1.6 | 6.4 | 0.00 | 0.51 | 0.03 | 90 | 1006.1 |
| 20260507060051 | 11 | 0 | 0.0 | 8.0 | 0.00 | 0.51 | 0.03 | 90 | 1006.2 |
| 20260507055526 | 11 | 346 | 1.6 | 8.0 | 0.00 | 0.51 | 0.03 | 90 | 1006.1 |
| 20260507055028 | 11 | 82 | 0.0 | 4.8 | 0.00 | 0.51 | 0.03 | 91 | 1006.2 |
| 20260507054536 | 11 | 17 | 1.6 | 4.8 | 0.00 | 0.51 | 0.03 | 91 | 1006.3 |
| 20260507054024 | 11 | 325 | 1.6 | 8.0 | 0.00 | 0.51 | 0.03 | 92 | 1006.4 |
| 20260507053524 | 11 | 343 | 1.6 | 8.0 | 0.00 | 0.51 | 0.03 | 92 | 1006.8 |
| 20260507053044 | 11 | 360 | 1.6 | 6.4 | 0.00 | 0.51 | 0.03 | 92 | 1006.5 |
| 20260507052527 | 11 | 334 | 0.0 | 4.8 | 0.00 | 0.51 | 0.03 | 93 | 1006.5 |
| 20260507052025 | 12 | 0 | 0.0 | 3.2 | 0.00 | 0.51 | 0.03 | 93 | 1006.5 |
| 20260507051553 | 12 | 8 | 0.0 | 3.2 | 0.00 | 0.51 | 0.03 | 93 | 1006.6 |
| 20260507051026 | 12 | 290 | 0.0 | 3.2 | 0.00 | 0.51 | 0.03 | 93 | 1006.6 |
| 20260507050527 | 12 | 0 | 0.0 | 3.2 | 0.00 | 0.51 | 0.03 | 93 | 1006.6 |
| 20260507050044 | 12 | 0 | 0.0 | 6.4 | 0.03 | 0.51 | 0.03 | 93 | 1006.5 |
| 20260507045524 | 12 | 7 | 1.6 | 6.4 | 0.05 | 0.51 | 0.03 | 93 | 1006.4 |
| 20260507045026 | 12 | 82 | 0.0 | 8.0 | 0.05 | 0.51 | 0.03 | 93 | 1006.5 |
| 20260507044539 | 12 | 15 | 1.6 | 8.0 | 0.05 | 0.51 | 0.03 | 93 | 1006.6 |
| 20260507044023 | 12 | 0 | 1.6 | 3.2 | 0.05 | 0.51 | 0.03 | 93 | 1006.6 |
| 20260507043526 | 12 | 25 | 0.0 | 4.8 | 0.05 | 0.51 | 0.03 | 92 | 1006.5 |
| 20260507043041 | 12 | 16 | 0.0 | 9.7 | 0.05 | 0.51 | 0.03 | 93 | 1006.3 |
| 20260507042523 | 12 | 0 | 0.0 | 9.7 | 0.05 | 0.51 | 0.03 | 92 | 1006.4 |
| 20260507042024 | 12 | 14 | 1.6 | 6.4 | 0.05 | 0.51 | 0.03 | 92 | 1006.3 |
| 20260507041537 | 13 | 51 | 1.6 | 8.0 | 0.05 | 0.51 | 0.03 | 92 | 1006.4 |
| 20260507041027 | 13 | 359 | 1.6 | 8.0 | 0.05 | 0.51 | 0.03 | 92 | 1006.2 |
| 20260507040525 | 13 | 356 | 1.6 | 8.0 | 0.05 | 0.51 | 0.03 | 92 | 1006.4 |
| 20260507040042 | 13 | 300 | 0.0 | 4.8 | 0.03 | 0.48 | 0.00 | 93 | 1006.4 |
| 20260507035526 | 14 | 333 | 0.0 | 8.0 | 0.00 | 0.46 | 0.46 | 93 | 1006.4 |
| 20260507035025 | 14 | 0 | 1.6 | 8.0 | 0.00 | 0.46 | 0.46 | 93 | 1006.4 |
| 20260507034538 | 14 | 288 | 3.2 | 8.0 | 0.00 | 0.46 | 0.46 | 94 | 1006.2 |
| 20260507034024 | 14 | 68 | 0.0 | 3.2 | 0.03 | 0.46 | 0.46 | 94 | 1006.1 |
| 20260507033528 | 14 | 11 | 0.0 | 3.2 | 0.03 | 0.46 | 0.46 | 94 | 1005.9 |
| 20260507033038 | 14 | 0 | 0.0 | 3.2 | 0.03 | 0.46 | 0.46 | 94 | 1005.8 |
| 20260507032526 | 14 | 0 | 0.0 | 3.2 | 0.03 | 0.46 | 0.46 | 94 | 1005.9 |
| 20260507032024 | 14 | 0 | 0.0 | 3.2 | 0.03 | 0.46 | 0.46 | 94 | 1006.0 |
| 20260507031538 | 14 | 43 | 0.0 | 3.2 | 0.03 | 0.46 | 0.46 | 95 | 1005.6 |
| 20260507031023 | 14 | 217 | 0.0 | 3.2 | 0.03 | 0.46 | 0.46 | 95 | 1005.6 |
| 20260507030527 | 14 | 184 | 0.0 | 3.2 | 0.03 | 0.46 | 0.46 | 95 | 1005.3 |
| 20260507030042 | 14 | 193 | 1.6 | 3.2 | 0.03 | 0.46 | 0.46 | 95 | 1005.3 |
| 20260507025528 | 14 | 247 | 0.0 | 4.8 | 0.03 | 0.46 | 0.46 | 95 | 1005.3 |
| 20260507025027 | 14 | 240 | 0.0 | 4.8 | 0.03 | 0.46 | 0.46 | 95 | 1005.3 |
| 20260507024542 | 14 | 0 | 0.0 | 4.8 | 0.03 | 0.46 | 0.46 | 95 | 1005.4 |
| 20260507024026 | 14 | 143 | 0.0 | 4.8 | 0.00 | 0.43 | 0.43 | 94 | 1005.3 |
| 20260507023526 | 14 | 259 | 0.0 | 4.8 | 0.00 | 0.43 | 0.43 | 94 | 1005.4 |
| 20260507023042 | 14 | 140 | 0.0 | 3.2 | 0.00 | 0.43 | 0.43 | 94 | 1005.3 |
| 20260507022527 | 14 | 122 | 0.0 | 4.8 | 0.00 | 0.43 | 0.43 | 94 | 1005.3 |
| 20260507022029 | 14 | 0 | 0.0 | 4.8 | 0.00 | 0.43 | 0.43 | 94 | 1005.3 |
| 20260507021541 | 14 | 0 | 0.0 | 6.4 | 0.00 | 0.43 | 0.43 | 94 | 1005.2 |
| 20260507021028 | 14 | 0 | 1.6 | 6.4 | 0.00 | 0.43 | 0.43 | 94 | 1005.1 |
| 20260507020525 | 14 | 136 | 0.0 | 4.8 | 0.00 | 0.43 | 0.43 | 94 | 1005.0 |
| 20260507020044 | 14 | 0 | 1.6 | 4.8 | 0.00 | 0.43 | 0.43 | 94 | 1005.0 |
| 20260507015528 | 14 | 129 | 0.0 | 4.8 | 0.00 | 0.43 | 0.43 | 94 | 1005.2 |
| 20260507015029 | 14 | 0 | 0.0 | 6.4 | 0.00 | 0.43 | 0.43 | 94 | 1005.2 |
| 20260507014547 | 14 | 0 | 0.0 | 6.4 | 0.00 | 0.43 | 0.43 | 94 | 1005.2 |
| 20260507014026 | 14 | 94 | 1.6 | 6.4 | 0.00 | 0.43 | 0.43 | 94 | 1005.2 |
| 20260507013524 | 14 | 252 | 0.0 | 4.8 | 0.00 | 0.43 | 0.43 | 94 | 1005.2 |
| 20260507013041 | 14 | 93 | 0.0 | 6.4 | 0.00 | 0.43 | 0.43 | 94 | 1005.2 |
| 20260507012525 | 14 | 0 | 1.6 | 6.4 | 0.00 | 0.43 | 0.43 | 95 | 1005.1 |
| 20260507012029 | 14 | 214 | 0.0 | 6.4 | 0.00 | 0.43 | 0.43 | 95 | 1005.2 |
| 20260507011541 | 14 | 265 | 1.6 | 6.4 | 0.00 | 0.43 | 0.43 | 95 | 1005.2 |
| 20260507011025 | 14 | 288 | 0.0 | 6.4 | 0.00 | 0.43 | 0.43 | 95 | 1005.2 |
| 20260507010527 | 14 | 179 | 0.0 | 6.4 | 0.00 | 0.43 | 0.43 | 95 | 1005.2 |
| 20260507010051 | 14 | 28 | 0.0 | 14.5 | 0.00 | 0.43 | 0.43 | 95 | 1005.2 |
| 20260507005528 | 14 | 252 | 0.0 | 14.5 | 0.00 | 0.43 | 0.43 | 95 | 1005.3 |
| 20260507005032 | 14 | 103 | 1.6 | 11.3 | 0.00 | 0.43 | 0.43 | 95 | 1005.3 |
| 20260507004537 | 14 | 181 | 1.6 | 8.0 | 0.00 | 0.43 | 0.43 | 95 | 1005.3 |
| 20260507004026 | 14 | 201 | 0.0 | 3.2 | 0.00 | 0.43 | 0.43 | 95 | 1005.3 |
| 20260507003528 | 14 | 0 | 0.0 | 6.4 | 0.00 | 0.43 | 0.43 | 95 | 1005.2 |
| 20260507003039 | 14 | 292 | 0.0 | 6.4 | 0.00 | 0.43 | 0.43 | 95 | 1005.2 |
| 20260507002525 | 14 | 274 | 1.6 | 6.4 | 0.00 | 0.43 | 0.43 | 95 | 1005.2 |
| 20260507002033 | 14 | 115 | 0.0 | 3.2 | 0.00 | 0.43 | 0.43 | 95 | 1005.2 |
| 20260507001537 | 14 | 163 | 0.0 | 4.8 | 0.00 | 0.43 | 0.43 | 94 | 1005.2 |
| 20260507001024 | 14 | 262 | 0.0 | 9.7 | 0.00 | 0.43 | 0.43 | 94 | 1005.1 |
| 20260507000525 | 14 | 212 | 1.6 | 11.3 | 0.03 | 0.43 | 0.43 | 94 | 1005.2 |
| 20260507000042 | 14 | 0 | 1.6 | 11.3 | 0.05 | 0.43 | 0.43 | 94 | 1005.1 |
| 20260506235527 | 14 | 0 | 0.0 | 6.4 | 0.10 | 0.43 | 0.43 | 94 | 1005.0 |
| 20260506235029 | 14 | 0 | 1.6 | 6.4 | 0.13 | 0.43 | 0.43 | 94 | 1005.0 |
| 20260506234534 | 14 | 41 | 0.0 | 3.2 | 0.13 | 0.43 | 0.43 | 94 | 1005.0 |
| 20260506234026 | 15 | 148 | 0.0 | 3.2 | 0.13 | 0.43 | 0.43 | 94 | 1005.0 |
| 20260506233528 | 15 | 0 | 0.0 | 3.2 | 0.13 | 0.43 | 0.43 | 94 | 1005.1 |
| 20260506233037 | 15 | 254 | 0.0 | 1.6 | 0.15 | 0.43 | 0.43 | 94 | 1005.0 |
| 20260506232526 | 15 | 281 | 0.0 | 3.2 | 0.15 | 0.43 | 0.43 | 94 | 1005.0 |
| 20260506232028 | 15 | 274 | 0.0 | 8.0 | 0.15 | 0.43 | 0.43 | 94 | 1005.0 |
| 20260506231551 | 15 | 98 | 0.0 | 8.0 | 0.15 | 0.43 | 0.43 | 93 | 1004.9 |
| 20260506231028 | 15 | 0 | 0.0 | 9.7 | 0.15 | 0.43 | 0.43 | 93 | 1005.0 |
| 20260506230526 | 15 | 128 | 1.6 | 9.7 | 0.13 | 0.41 | 0.41 | 93 | 1005.1 |
| 20260506230052 | 15 | 162 | 1.6 | 9.7 | 0.08 | 0.36 | 0.36 | 93 | 1005.0 |
| 20260506225526 | 15 | 0 | 0.0 | 3.2 | 0.08 | 0.33 | 0.33 | 93 | 1005.2 |
| 20260506225025 | 15 | 0 | 0.0 | 6.4 | 0.05 | 0.30 | 0.30 | 93 | 1005.1 |
| 20260506224543 | 15 | 147 | 1.6 | 9.7 | 0.05 | 0.30 | 0.30 | 93 | 1005.2 |
| 20260506224029 | 15 | 141 | 0.0 | 9.7 | 0.05 | 0.30 | 0.30 | 92 | 1005.2 |
| 20260506223524 | 15 | 278 | 1.6 | 9.7 | 0.05 | 0.30 | 0.30 | 92 | 1005.1 |
| 20260506223045 | 15 | 0 | 1.6 | 6.4 | 0.03 | 0.28 | 0.28 | 92 | 1005.1 |
| 20260506222525 | 15 | 279 | 0.0 | 3.2 | 0.03 | 0.28 | 0.28 | 92 | 1005.2 |
| 20260506222028 | 15 | 198 | 0.0 | 6.4 | 0.03 | 0.28 | 0.28 | 92 | 1005.2 |
| 20260506221558 | 15 | 143 | 0.0 | 6.4 | 0.03 | 0.28 | 0.28 | 92 | 1005.3 |
| 20260506221028 | 15 | 209 | 0.0 | 4.8 | 0.03 | 0.28 | 0.28 | 92 | 1005.3 |
| 20260506220526 | 15 | 177 | 1.6 | 9.7 | 0.03 | 0.28 | 0.28 | 92 | 1005.4 |
| 20260506220050 | 15 | 168 | 1.6 | 9.7 | 0.03 | 0.28 | 0.28 | 92 | 1005.4 |
| 20260506215531 | 15 | 193 | 1.6 | 4.8 | 0.00 | 0.25 | 0.25 | 92 | 1005.5 |
| 20260506215027 | 15 | 267 | 0.0 | 6.4 | 0.00 | 0.25 | 0.25 | 91 | 1005.4 |
| 20260506214540 | 15 | 0 | 0.0 | 6.4 | 0.03 | 0.25 | 0.25 | 91 | 1005.4 |
| 20260506214024 | 15 | 191 | 1.6 | 6.4 | 0.03 | 0.25 | 0.25 | 91 | 1005.5 |
| 20260506213525 | 15 | 169 | 1.6 | 6.4 | 0.03 | 0.25 | 0.25 | 91 | 1005.6 |
| 20260506213039 | 15 | 214 | 1.6 | 6.4 | 0.03 | 0.25 | 0.25 | 91 | 1005.6 |
| 20260506212528 | 15 | 232 | 1.6 | 6.4 | 0.05 | 0.25 | 0.25 | 91 | 1005.7 |
| 20260506212025 | 15 | 163 | 1.6 | 8.0 | 0.05 | 0.25 | 0.25 | 91 | 1005.7 |
| 20260506211541 | 15 | 120 | 1.6 | 8.0 | 0.08 | 0.25 | 0.25 | 91 | 1005.9 |
| 20260506211028 | 15 | 177 | 1.6 | 6.4 | 0.08 | 0.25 | 0.25 | 91 | 1006.0 |
| 20260506210527 | 15 | 214 | 1.6 | 12.9 | 0.08 | 0.25 | 0.25 | 90 | 1005.9 |
| 20260506210052 | 15 | 0 | 1.6 | 12.9 | 0.10 | 0.25 | 0.25 | 91 | 1005.9 |
| 20260506205529 | 15 | 0 | 1.6 | 14.5 | 0.10 | 0.25 | 0.25 | 90 | 1006.0 |
| 20260506205027 | 15 | 202 | 1.6 | 14.5 | 0.10 | 0.25 | 0.25 | 90 | 1006.1 |
| 20260506204541 | 15 | 84 | 1.6 | 3.2 | 0.08 | 0.23 | 0.23 | 90 | 1006.1 |
| 20260506204027 | 15 | 236 | 0.0 | 8.0 | 0.08 | 0.23 | 0.23 | 90 | 1006.1 |
| 20260506203526 | 15 | 271 | 1.6 | 8.0 | 0.08 | 0.23 | 0.23 | 90 | 1006.1 |
| 20260506203039 | 15 | 283 | 0.0 | 6.4 | 0.10 | 0.23 | 0.23 | 90 | 1006.2 |
| 20260506202528 | 15 | 278 | 1.6 | 8.0 | 0.08 | 0.20 | 0.20 | 89 | 1006.2 |
| 20260506202030 | 16 | 273 | 1.6 | 14.5 | 0.10 | 0.20 | 0.20 | 89 | 1006.2 |
| 20260506201542 | 16 | 146 | 1.6 | 14.5 | 0.08 | 0.18 | 0.18 | 88 | 1006.1 |